GSAT0210 (GALILEO 13)

Last updated on Thu Oct 30 2025 00:02:35 GMT+0000 (Coordinated Universal Time)

1 41550U 16030B 25301.35301961 .00000007 00000+0 00000+0 0 9999 2 41550 55.1693 228.0699 0002474 248.9311 111.0634 1.70473491 58710
UTC large
Height (km)
Speed (km/s)
/
Latitude / Longitude
Inclination (degrees)
Orbital Period (minutes)
Azimuth
Elevation
Range (km)
Doppler Factor

Next 0 passes for location: London (51.5072 / 0.1276)

Sorry there are no passes over London.